Volver al catálogo

STARLINK-5940

ActivoComunicacionesVLEO
NORAD 56012·PAYLOAD·🇺🇸 United States

Lanzado Mar 24, 2023 desde Cape Canaveral Space Force Station

Loading…

Próximos Pases (próximas 24 horas)

TLE

ActualizadoSource: CelesTrak SupGP

Época: Sep 14, 2026, 21:01 UTC

1 56012C 23042AC  26257.87618056  .00040718  00000+0  14751-2 0  2574
2 56012  43.0016  56.4501 0001406 272.8616  74.9961 15.27552330    14

Sigue STARLINK-5940 en tiempo real con AllMySat

Download on the App Store